Weather History for South Hill, VA

Change the Weather History Date:

Monday, January 21, 2013

  Actual Average (KEMV) Record (KEMV)
Temperature  
Mean Temperature 42 °F -  
Max Temperature 57 °F 47 °F 60 °F (1989)
Min Temperature 26 °F 23 °F -4 °F (1985)
Degree Days  
Heating Degree Days 24    
Moisture  
Dew Point 28 °F    
Average Humidity 61    
Maximum Humidity 100    
Minimum Humidity 34    
Precipitation  
Precipitation 0.00 in - - ()
Sea Level Pressure  
Sea Level Pressure 30.03 in    
Wind  
Wind Speed 3 mph (SSW)    
Max Wind Speed 15 mph    
Max Gust Speed 22 mph    
Visibility 10 miles    
Events      
Averages and records for this station are not official NWS values.
T = Trace of Precipitation, MM = Missing Value Source: NWS Daily Summary

Daily Weather History Graph

Daily Weather History Graph

Search for Another Location

Airport:

Trip Planner

Search our weather history database for the weather conditions in past years. The results will help you decide how hot, cold, wet, or windy it might be!

Date:

Astronomy

Jan. 21, 2013 Rise Set
Actual Time 7:21 AM EST 5:26 PM EST
Civil Twilight 6:53 AM EST 5:54 PM EST
Nautical Twilight 6:21 AM EST 6:25 PM EST
Astronomical Twilight 5:51 AM EST 6:56 PM EST
Moon 1:05 PM EST (1/21) 2:47 AM EST (1/21)
Length of Visible Light 11h 00m
Length of Day
10h 05m
Waxing Gibbous, 75% of the Moon is Illuminated
Jan 21
Waxing Gibbous
Jan 26
Full
Feb 3
Last Quarter
Feb 10
New
Feb 17
First Quarter

Hourly Weather History & Observations

Time (EST) Temp. Windchill Dew Point Humidity Pressure Visibility Wind Dir Wind Speed Gust Speed Precip Events Conditions
12:39 AM 32.0 °F - 28.4 °F 87% 30.12 in 10.0 mi Calm Calm - N/A   Clear
12:57 AM 32.0 °F - 30.2 °F 93% 30.12 in 10.0 mi Calm Calm - N/A   Clear
1:17 AM 30.2 °F - 28.4 °F 93% 30.12 in 10.0 mi Calm Calm - N/A   Clear
1:57 AM 28.4 °F - 28.4 °F 100% 30.13 in 10.0 mi Calm Calm - N/A   Clear
2:17 AM 28.4 °F - 28.4 °F 100% 30.13 in 10.0 mi Calm Calm - N/A   Clear
2:37 AM 28.4 °F - 26.6 °F 93% 30.13 in 10.0 mi Calm Calm - N/A   Clear
3:57 AM 32.0 °F - 30.2 °F 93% 30.12 in 10.0 mi Calm Calm - N/A   Clear
4:17 AM 33.8 °F - 30.2 °F 87% 30.11 in 10.0 mi Calm Calm - N/A   Clear
4:38 AM 33.8 °F - 28.4 °F 81% 30.11 in 10.0 mi Calm Calm - N/A   Clear
5:18 AM 30.2 °F 26.7 °F 26.6 °F 86% 30.11 in 10.0 mi North 3.5 mph - N/A   Clear
5:37 AM 26.6 °F - 24.8 °F 93% 30.11 in 10.0 mi Calm Calm - N/A   Clear
5:59 AM 26.6 °F - 26.6 °F 100% 30.11 in 10.0 mi Calm Calm - N/A   Clear
8:38 AM 35.6 °F - 33.8 °F 93% 30.12 in 10.0 mi Calm Calm - N/A   Clear
8:58 AM 42.8 °F - 30.2 °F 61% 30.12 in 10.0 mi Calm Calm - N/A   Clear
9:18 AM 44.6 °F 43.1 °F 30.2 °F 57% 30.11 in 10.0 mi SSE 3.5 mph - N/A   Clear
10:17 AM 46.4 °F 42.9 °F 32.0 °F 57% 30.11 in 10.0 mi SSE 6.9 mph - N/A   Clear
10:40 AM 48.2 °F - 32.0 °F 54% 30.10 in 10.0 mi SE 5.8 mph - N/A   Clear
10:58 AM 51.8 °F - 33.8 °F 50% 30.10 in 10.0 mi South 5.8 mph - N/A   Clear
11:17 AM 51.8 °F - 32.0 °F 47% 30.09 in 10.0 mi South 9.2 mph - N/A   Clear
11:37 AM 51.8 °F - 30.2 °F 44% 30.07 in 10.0 mi South 5.8 mph - N/A   Clear
11:57 AM 51.8 °F - 30.2 °F 44% 30.05 in 10.0 mi South 9.2 mph - N/A   Clear
12:57 PM 55.4 °F - 30.2 °F 38% 30.01 in 10.0 mi South 3.5 mph - N/A   Clear
1:20 PM 55.4 °F - 30.2 °F 38% 29.99 in 10.0 mi South 6.9 mph - N/A   Clear
2:17 PM 57.2 °F - 30.2 °F 36% 29.95 in 10.0 mi South 11.5 mph - N/A   Clear
2:37 PM 57.2 °F - 30.2 °F 36% 29.93 in 10.0 mi South 11.5 mph 21.9 mph N/A   Clear
3:00 PM 57.2 °F - 32.0 °F 38% 29.92 in 10.0 mi SSW 6.9 mph - N/A   Clear
3:17 PM 57.2 °F - 30.2 °F 36% 29.92 in 10.0 mi SSW 15.0 mph - N/A   Clear
4:39 PM 55.4 °F - 28.4 °F 36% 29.89 in 10.0 mi SSW 11.5 mph - N/A   Clear
5:17 PM 51.8 °F - 28.4 °F 41% 29.88 in 10.0 mi SSW 6.9 mph - N/A   Clear
5:59 PM 46.4 °F 44.3 °F 28.4 °F 50% 29.88 in 10.0 mi SSW 4.6 mph - N/A   Clear
6:18 PM 44.6 °F 43.1 °F 28.4 °F 53% 29.88 in 10.0 mi SSW 3.5 mph - N/A   Clear
6:38 PM 42.8 °F 40.1 °F 30.2 °F 61% 29.88 in 10.0 mi SSW 4.6 mph - N/A   Clear
6:57 PM 41.0 °F 38.0 °F 28.4 °F 61% 29.89 in 10.0 mi SW 4.6 mph - N/A   Clear
8:00 PM 46.4 °F 42.4 °F 26.6 °F 46% 29.92 in 10.0 mi WNW 8.1 mph - N/A   Clear
8:17 PM 46.4 °F 42.4 °F 24.8 °F 43% 29.92 in 10.0 mi West 8.1 mph - N/A   Clear
9:37 PM 44.6 °F 39.7 °F 17.6 °F 34% 29.95 in 10.0 mi West 9.2 mph - N/A   Clear
9:59 PM 42.8 °F - 17.6 °F 36% 29.95 in 10.0 mi North - - N/A   Clear
10:37 PM 42.8 °F 37.0 °F 17.6 °F 36% 29.96 in 10.0 mi West 10.4 mph 17.3 mph N/A   Clear
11:59 PM 39.2 °F 33.0 °F 15.8 °F 39% 29.98 in 10.0 mi West 9.2 mph - N/A   Clear